Waarnemingen

Advertentie
Mijn weer
F16-A, Nederland (6206): temperatuur & dauwpunt: 23.03.2017 01:00:00 - 29.03.2017 01:00:00 (CEST)F16-A, Nederland (6206): windsnelheid & windstoten: 23.03.2017 01:00:00 - 29.03.2017 01:00:00 (CEST)F16-A, Nederland (6206): windrichting: 23.03.2017 01:00:00 - 29.03.2017 01:00:00 (CEST)F16-A, Nederland (6206): luchtdruk: 23.03.2017 01:00:00 - 29.03.2017 01:00:00 (CEST)F16-A, Nederland (6206): zicht: 23.03.2017 01:00:00 - 29.03.2017 01:00:00 (CEST)
Datum & Tijd tt [°C] td [°C] ff [km/u] ff [kn] fx [km/u] fx [kn] dd ppp [hPa] vv [km]
29.03.2017 01:00:00 6,8 6,8 24 13 25 14 ZW 1018,2 2,9
29.03.2017 00:00:00 6,2 6,2 21 11 22 12 ZW 1018,3 1,7
28.03.2017 23:00:00 5,8 5,8 22 12 22 12 ZW 1018,5 0,3
28.03.2017 22:00:00 5,7 5,7 24 13 29 16 ZZW 1018,5 0,4
28.03.2017 21:00:00 5,1 5,1 13 7 18 10 Z 1018,5 0,5
28.03.2017 20:00:00 4,6 4,6 15 8 18 10 ZZW 1018,7 0,3
28.03.2017 19:00:00 4,1 4,1 11 6 14 8 Z 1018,8 0,1
28.03.2017 18:00:00 4,3 4,3 13 7 14 8 ZZW 1019,0 0,2
28.03.2017 17:00:00 4,4 4,4 8 4 14 8 ZZO 1019,3 0,1
28.03.2017 16:00:00 4,4 4,4 11 6 14 8 ZZO 1019,7 0,1
28.03.2017 15:00:00 4,2 4,2 5 3 11 6 ZO 1020,0 0,1
28.03.2017 14:00:00 4,1 4,1 4 2 14 8 - 1020,5 0,1
28.03.2017 13:00:00 4,0 4,0 8 4 11 6 O 1020,7 0,1
28.03.2017 12:00:00 3,8 3,8 4 2 7 4 - 1020,8 0,2
28.03.2017 11:00:00 3,7 3,7 8 4 11 6 ONO 1020,7 0,1
28.03.2017 10:00:00 3,7 3,7 5 3 14 8 NO 1020,6 0,1
28.03.2017 09:00:00 3,7 3,7 4 2 11 6 - 1020,5 0,1
28.03.2017 08:00:00 3,8 3,8 4 2 14 8 - 1020,4 0,1
28.03.2017 07:00:00 3,9 3,9 11 6 14 8 OZO 1020,2 0,2
28.03.2017 06:00:00 3,7 3,6 16 9 18 10 OZO 1020,2 0,2
28.03.2017 05:00:00 3,5 3,5 21 11 25 14 - 1020,6 0,2
28.03.2017 04:00:00 3,5 3,5 24 13 25 14 O 1021,1 0,2
28.03.2017 03:00:00 3,7 3,7 24 13 29 16 ONO 1021,7 0,2
28.03.2017 02:00:00 3,5 3,5 21 11 25 14 ONO 1022,3 0,2
28.03.2017 01:00:00 3,7 3,7 15 8 22 12 O 1022,7 0,2
28.03.2017 00:00:00 3,7 3,7 22 12 25 14 ONO 1022,9 0,2
27.03.2017 23:00:00 4,0 4,0 18 10 22 12 ONO 1023,4 0,2
27.03.2017 22:00:00 4,2 4,1 18 10 25 14 O 1023,4 0,2
27.03.2017 21:00:00 4,2 4,1 18 10 25 14 O 1023,3 0,2
27.03.2017 20:00:00 4,6 4,4 15 8 25 14 OZO 1023,3 0,2
27.03.2017 19:00:00 4,8 4,4 18 10 32 18 O 1023,0 0,6
27.03.2017 18:00:00 4,8 4,2 31 17 32 18 O 1023,3 2,5
27.03.2017 17:00:00 5,0 4,4 29 16 32 18 ONO 1023,9 2,4
27.03.2017 16:00:00 5,0 4,4 26 14 29 16 O 1024,4 1,7
27.03.2017 15:00:00 5,5 4,5 26 14 29 16 O 1024,9 5
27.03.2017 14:00:00 5,6 4,8 24 13 25 14 O 1025,6 5
27.03.2017 13:00:00 5,3 4,8 21 11 25 14 ONO 1026,1 3,0
27.03.2017 12:00:00 5,1 4,8 15 8 22 12 O 1026,5 1,5
27.03.2017 11:00:00 4,9 4,8 13 7 18 10 O 1026,5 0,4
27.03.2017 10:00:00 4,9 4,3 16 9 25 14 O 1026,3 1,5
27.03.2017 09:00:00 4,9 4,2 15 8 22 12 - 1026,5 3,3
27.03.2017 08:00:00 5,2 4,3 13 7 22 12 O 1026,1 4,3
27.03.2017 07:00:00 5,3 4,6 9 5 14 8 O 1026,0 7
27.03.2017 06:00:00 5,3 4,3 11 6 14 8 OZO 1026,2 10
27.03.2017 05:00:00 5,5 4,0 13 7 14 8 OZO 1026,2 10
27.03.2017 04:00:00 5,5 4,0 13 7 22 12 O 1026,5 10
27.03.2017 03:00:00 5,7 3,7 16 9 18 10 OZO 1026,9 10
27.03.2017 02:00:00 6,0 3,6 15 8 14 8 OZO 1027,3 10
27.03.2017 01:00:00 6,3 3,7 11 6 22 12 - 1027,5 10
27.03.2017 00:00:00 6,5 3,7 16 9 25 14 O 1027,6 10
26.03.2017 23:00:00 6,5 4,5 21 11 29 16 O 1027,8 10
26.03.2017 22:00:00 6,2 4,4 24 13 32 18 ONO 1027,6 10
26.03.2017 21:00:00 6,4 4,5 28 15 32 18 ONO 1027,2 10
26.03.2017 20:00:00 6,4 5,1 18 10 22 12 ONO 1027,1 10
26.03.2017 19:00:00 6,2 5,3 16 9 22 12 ONO 1027,2 10
26.03.2017 18:00:00 6,4 5,2 21 11 22 12 ONO 1027,6 10
26.03.2017 17:00:00 6,3 5,3 18 10 22 12 ONO 1027,8 10
26.03.2017 16:00:00 6,2 5,2 22 12 25 14 ONO 1028,1 8
26.03.2017 15:00:00 5,8 5,2 26 14 25 14 ONO 1028,3 10
26.03.2017 14:00:00 5,5 5,1 22 12 25 14 ONO 1028,4 3,5
26.03.2017 13:00:00 5,5 5,0 26 14 29 16 ONO 1028,4 0,3
26.03.2017 12:00:00 5,9 4,6 28 15 29 16 ONO 1028,5 10
26.03.2017 11:00:00 6,8 5,5 16 9 22 12 NO 1028,5 8
26.03.2017 10:00:00 7,7 5,8 15 8 18 10 NO 1028,7 10
26.03.2017 09:00:00 7,1 5,6 11 6 14 8 NNO 1028,3 10
26.03.2017 08:00:00 6,8 5,5 16 9 22 12 NO 1027,9 10
26.03.2017 07:00:00 6,6 5,6 22 12 22 12 NO 1027,5 10
26.03.2017 06:00:00 6,6 5,7 18 10 18 10 NNO 1027,8 10
26.03.2017 05:00:00 6,7 5,7 21 11 22 12 NNO 1027,8 10
26.03.2017 04:00:00 6,6 5,7 22 12 22 12 NO 1028,4 10
26.03.2017 03:00:00 6,6 6,1 18 10 18 10 NO 1028,7 10
26.03.2017 02:00:00 6,5 6,1 15 8 14 8 NO 1028,9 8
26.03.2017 01:00:00 6,6 5,7 11 6 14 8 NO 1029,3 9
26.03.2017 00:00:00 6,7 6,0 16 9 14 8 NO 1030,0 10
25.03.2017 23:00:00 6,8 6,1 16 9 14 8 NO 1030,2 10
25.03.2017 22:00:00 6,8 5,8 13 7 14 8 NNO 1029,9 10
25.03.2017 21:00:00 7,2 5,9 15 8 14 8 NNW 1029,9 10
25.03.2017 20:00:00 7,4 5,7 16 9 14 8 N 1029,8 10
25.03.2017 19:00:00 7,8 5,6 15 8 14 8 NNW 1030,0 10
25.03.2017 18:00:00 7,7 5,2 15 8 14 8 NNW 1030,4 10
25.03.2017 17:00:00 7,9 4,8 13 7 14 8 NNW 1030,9 10
25.03.2017 16:00:00 7,7 3,8 11 6 14 8 NNW 1032,0 10
25.03.2017 15:00:00 8,0 3,6 15 8 14 8 NNW 1032,7 10
25.03.2017 14:00:00 7,4 2,8 9 5 18 10 NW 1033,5 10
25.03.2017 13:00:00 7,2 4,3 9 5 18 10 - 1034,0 10
25.03.2017 12:00:00 6,6 4,7 11 6 18 10 NNW 1034,1 10
25.03.2017 11:00:00 6,6 5,0 9 5 14 8 NNW 1034,4 10
25.03.2017 10:00:00 6,4 5,0 11 6 11 6 NW 1034,3 10
25.03.2017 09:00:00 6,5 5,0 9 5 14 8 NW 1034,3 10
25.03.2017 08:00:00 6,2 4,8 13 7 11 6 NNW 1034,2 10
25.03.2017 07:00:00 6,0 4,6 13 7 14 8 NNW 1034,1 10
25.03.2017 06:00:00 5,8 4,2 9 5 22 12 - 1034,2 10
25.03.2017 05:00:00 5,7 4,5 2 1 11 6 W 1034,4 10
25.03.2017 04:00:00 5,7 4,4 4 2 7 4 O 1035,0 10
25.03.2017 03:00:00 5,8 3,9 4 2 7 4 - 1035,5 10
25.03.2017 02:00:00 5,9 3,8 8 4 7 4 ONO 1035,6 10
25.03.2017 01:00:00 6,0 3,4 8 4 11 6 O 1035,5 10
25.03.2017 00:00:00 6,1 3,1 8 4 14 8 O 1035,5 10
24.03.2017 23:00:00 6,2 3,5 21 11 22 12 ONO 1035,3 10
24.03.2017 22:00:00 6,2 3,8 22 12 22 12 NO 1035,1 10
24.03.2017 21:00:00 6,2 4,4 26 14 25 14 NO 1034,7 10
24.03.2017 20:00:00 6,3 4,3 22 12 22 12 NO 1034,4 10
24.03.2017 19:00:00 6,3 4,8 15 8 18 10 ONO 1034,1 10
24.03.2017 18:00:00 6,4 4,8 22 12 22 12 NO 1034,2 10
24.03.2017 17:00:00 6,4 4,8 16 9 18 10 ONO 1034,7 10
24.03.2017 16:00:00 6,3 4,9 16 9 14 8 ONO 1034,5 10
24.03.2017 15:00:00 6,3 4,9 13 7 18 10 O 1034,6 10
24.03.2017 14:00:00 6,4 4,8 15 8 18 10 ONO 1034,6 10
24.03.2017 13:00:00 6,4 4,7 16 9 18 10 ONO 1034,1 10
24.03.2017 12:00:00 6,5 4,5 15 8 25 14 O 1033,5 10
24.03.2017 11:00:00 6,2 4,2 29 16 29 16 ONO 1032,8 10
24.03.2017 10:00:00 6,0 4,0 29 16 29 16 ONO 1032,3 10
24.03.2017 09:00:00 6,0 3,6 31 17 32 18 ONO 1031,8 10
24.03.2017 08:00:00 5,8 3,1 31 17 32 18 ONO 1031,4 10
24.03.2017 07:00:00 5,8 3,0 35 19 36 19 ONO 1030,8 10
24.03.2017 06:00:00 5,9 2,8 35 19 40 21 ONO 1030,1 10
24.03.2017 05:00:00 5,9 2,7 35 19 40 21 ONO 1029,6 10
24.03.2017 04:00:00 6,0 2,9 37 20 40 21 ONO 1029,6 10
24.03.2017 03:00:00 6,0 2,6 37 20 40 21 ONO 1028,9 10
24.03.2017 02:00:00 5,9 2,7 42 23 47 25 ONO 1028,5 10
24.03.2017 01:00:00 5,9 2,7 44 24 47 25 ONO 1028,0 10
24.03.2017 00:00:00 6,0 2,5 46 25 50 27 ONO 1027,5 10
23.03.2017 23:00:00 6,1 2,8 46 25 50 27 ONO 1027,1 10
23.03.2017 22:00:00 6,2 3,3 46 25 47 25 ONO 1026,7 10
23.03.2017 21:00:00 6,3 3,5 46 25 50 27 ONO 1026,1 10
23.03.2017 20:00:00 6,3 3,7 48 26 50 27 ONO 1025,0 10
23.03.2017 19:00:00 6,5 3,7 46 25 50 27 ONO 1024,0 10
23.03.2017 18:00:00 6,6 3,5 50 27 50 27 ONO 1023,2 10
23.03.2017 17:00:00 6,5 3,6 46 25 50 27 ONO 1022,4 10
23.03.2017 16:00:00 6,5 3,8 44 24 50 27 ONO 1022,1 10
23.03.2017 15:00:00 6,6 3,8 48 26 50 27 ONO 1022,1 10
23.03.2017 14:00:00 6,6 3,9 46 25 50 27 ONO 1021,9 10
23.03.2017 13:00:00 6,7 3,8 46 25 50 27 ONO 1021,9 10
23.03.2017 12:00:00 6,9 3,5 50 27 54 29 ONO 1021,3 10
23.03.2017 11:00:00 6,9 3,6 50 27 50 27 ONO 1020,5 10
23.03.2017 10:00:00 7,0 3,6 44 24 47 25 ONO 1020,1 10
23.03.2017 09:00:00 6,9 3,6 50 27 50 27 ONO 1019,4 10
23.03.2017 08:00:00 6,7 3,9 46 25 47 25 ONO 1018,8 10
23.03.2017 07:00:00 7,0 3,4 48 26 47 25 O 1018,2 10
23.03.2017 06:00:00 6,8 4,0 44 24 43 23 O 1017,7 10
23.03.2017 05:00:00 6,7 4,0 42 23 43 23 O 1017,2 10
23.03.2017 04:00:00 6,8 3,8 39 21 43 23 O 1016,9 10
23.03.2017 03:00:00 6,9 3,7 34 18 36 19 O 1016,8 10
23.03.2017 02:00:00 7,0 3,6 39 21 40 21 OZO 1016,5 10
23.03.2017 01:00:00 - - - - - - - - -

tt = temperatuur
td = dauwpunt
ff = windsnelheid
fx = windstoten
dd = windrichting
ppp = luchtdruk
vv = zicht

Weerstations in de omgeving